Location: UMBC
(39.2555°N, 76.7093°W)
Time: 01:52:57
(UTC+02:00)

Amateur Radio Satellites - All Passes

Search period start: 29 April 2016 01:22
Search period end: 30 April 2016 01:22
Location: UMBC, 39.2555°N, 76.7093°W

Satellite Date Start Highest point End Downlink Frequencies (MHz)
Time Altitude Azimuth
CANX-2 29 Apr 01:30:30 01:33:34 20° 68° (ENE) 01:36:37 2200.000
Cosmos 2504 29 Apr 01:39:16 01:41:32 12° 78° (ENE) 01:43:46 435.465 / 435.565
GOMX 1 29 Apr 01:44:24 01:49:02 47° 262° (W) 01:54:02 467.674
CUTE-I 29 Apr 01:45:59 01:50:05 22° 266° (W) 01:54:13 437.470
CINEMA 3 29 Apr 01:46:09 01:50:30 31° 69° (ENE) 01:54:54 145.822/145.860
STRAND 1 29 Apr 01:47:13 01:51:51 34° 97° (E) 01:56:27 437.568
BRITE-PL 29 Apr 01:47:35 01:51:06 21° 269° (W) 01:54:51 437.365/2234.400
AAUSAT CUBESAT 2 29 Apr 01:53:54 01:55:47 13° 65° (ENE) 01:57:40 437.432
M-CUBED/EXP-1 PRIME 29 Apr 01:56:53 02:00:33 22° 261° (W) 02:04:15 437.505
CUTE 1.7 + AOD 2 29 Apr 02:03:12 02:07:08 39° 72° (ENE) 02:11:04 437.475
DOVE 4 29 Apr 02:04:16 02:09:09 60° 260° (W) 02:14:18 437.250
AUBIESAT-1 29 Apr 02:20:58 02:23:40 15° 263° (W) 02:26:25 437.475
Cosmos 2491 29 Apr 02:32:42 02:39:46 28° 278° (W) 02:46:47 435.465 / 435.565
SEEDS 29 Apr 02:38:53 02:43:04 76° 76° (ENE) 02:47:15 437.485
YUBILEINY 29 Apr 02:43:22 02:51:51 53° 283° (WNW) 03:00:21 435.215
PRISM 29 Apr 02:44:22 02:47:48 25° 96° (E) 02:51:14 437.425
BEESAT 2 29 Apr 02:50:18 02:54:11 52° 304° (NW) 02:58:06 435.950
COMPASS 1 29 Apr 02:51:07 02:55:14 75° 77° (ENE) 02:59:23 437.405
BEESAT 3 29 Apr 02:52:45 02:56:14 30° 309° (NW) 02:59:45 437.485
HO-68 29 Apr 02:54:53 03:01:56 60° 258° (WSW) 03:09:01 435.675
CUBEBUG 2 29 Apr 03:05:00 03:09:43 67° 75° (ENE) 03:14:26 437.445
CANX-2 29 Apr 03:05:22 03:09:11 33° 263° (W) 03:13:01 2200.000
Oscar 11 29 Apr 03:05:38 03:09:33 34° 71° (ENE) 03:13:28 145.826/435.025
UWE-3 29 Apr 03:07:51 03:12:21 50° 73° (ENE) 03:16:50 435.000/436.395/437.385
FUNcube-1 29 Apr 03:10:11 03:14:15 33° 71° (ENE) 03:18:18 145.935
JUGNU 29 Apr 03:16:47 03:17:51 10° 176° (S) 03:18:56 437.505
CINEMA 3 29 Apr 03:23:17 03:27:33 29° 265° (W) 03:31:55 145.822/145.860
Cosmos 2504 29 Apr 03:26:17 03:33:42 83° 96° (E) 03:40:53 435.465 / 435.565
STRAND 1 29 Apr 03:26:37 03:30:52 27° 293° (WNW) 03:35:07 437.568
AAUSAT CUBESAT 2 29 Apr 03:26:50 03:30:50 50° 260° (W) 03:34:51 437.432
CUTE 1.7 + AOD 2 29 Apr 03:40:32 03:43:08 16° 267° (W) 03:45:44 437.475
AIST 2 29 Apr 03:43:24 03:47:12 37° 115° (ESE) 03:51:02 435.215
DELFI C3 29 Apr 03:44:02 03:47:46 43° 73° (ENE) 03:51:31 145.870
ZACube-1 29 Apr 03:49:15 03:53:50 86° 259° (W) 03:58:22 437.345
RS-15 29 Apr 03:54:23 04:04:33 42° 107° (ESE) 04:15:10 29.354- 29.394
HUMSAT D 29 Apr 03:58:34 04:02:15 29° 70° (ENE) 04:05:53 437.325/437.525
PRISM 29 Apr 04:19:36 04:23:02 25° 291° (WNW) 04:26:28 437.425
ESTCUBE 1 29 Apr 04:27:15 04:29:14 13° 63° (ENE) 04:31:13 437.505/2401.250
50 SAT 29 Apr 04:41:01 04:42:11 11° 65° (ENE) 04:43:20 437.505
Oscar 11 29 Apr 04:42:40 04:45:45 19° 266° (W) 04:48:51 145.826/435.025
CUBEBUG 2 29 Apr 04:44:56 04:46:44 12° 270° (W) 04:48:32 437.445
UWE-3 29 Apr 04:46:16 04:49:02 16° 268° (W) 04:51:48 435.000/436.395/437.385
FUNcube-1 29 Apr 04:46:59 04:50:31 22° 266° (W) 04:54:02 145.935
UNISAT 6 29 Apr 04:57:54 05:01:47 31° 96° (E) 05:05:37 437.425
AO-85 29 Apr 04:59:29 05:04:14 57° 55° (NE) 05:08:31 145.980
JUGNU 29 Apr 05:05:40 05:05:55 10° 186° (S) 05:06:10 437.505
CUBEBUG 1 29 Apr 05:15:41 05:19:26 29° 69° (ENE) 05:23:13 437.445
TIGRISAT 29 Apr 05:16:50 05:21:05 49° 99° (E) 05:25:12 435.000
DELFI C3 29 Apr 05:21:07 05:22:51 13° 268° (W) 05:24:36 145.870
AIST 2 29 Apr 05:22:36 05:25:48 21° 312° (NW) 05:29:01 435.215
Cosmos 2504 29 Apr 05:23:46 05:27:57 16° 295° (WNW) 05:32:05 435.465 / 435.565
VELOX 1 29 Apr 05:30:04 05:34:15 43° 72° (ENE) 05:38:28 145.980
HUMSAT D 29 Apr 05:34:32 05:37:51 22° 265° (W) 05:41:10 437.325/437.525
ANTELSAT 29 Apr 05:39:58 05:44:21 84° 284° (WNW) 05:48:37 437.575/2403.000
NANOSAT C BR1 29 Apr 05:42:44 05:45:38 18° 93° (E) 05:48:30 145.865
DX 1 29 Apr 05:43:01 05:47:14 55° 74° (ENE) 05:51:32 434.975-435.025
SRMSAT 29 Apr 05:55:14 05:56:44 11° 179° (S) 05:58:14 437.500
UKube-1 29 Apr 05:58:03 06:02:19 67° 74° (ENE) 06:06:38 .
ESTCUBE 1 29 Apr 06:01:05 06:05:30 61° 259° (W) 06:09:57 437.505/2401.250
AISAT 29 Apr 06:01:12 06:05:38 80° 258° (WSW) 06:10:07 437.250
BUGSAT 1 29 Apr 06:03:54 06:06:04 14° 92° (E) 06:08:11 437.445
RS-15 29 Apr 06:05:27 06:16:32 58° 310° (NW) 06:28:20 29.354- 29.394
50 SAT 29 Apr 06:12:02 06:15:34 45° 260° (W) 06:19:06 437.505
QB50P2 29 Apr 06:30:09 06:34:24 71° 101° (E) 06:38:37 145.880/145.840
GONETS M04 29 Apr 06:31:12 06:38:51 34° 85° (E) 06:46:29
POLYITAN 1 29 Apr 06:32:15 06:36:30 73° 102° (ESE) 06:40:42 437.675
UNISAT 6 29 Apr 06:35:01 06:38:19 21° 293° (WNW) 06:41:33 437.425
POPSAT HIP 1 29 Apr 06:36:07 06:40:24 78° 104° (ESE) 06:44:37 437.405
DUCHIFAT 1 29 Apr 06:36:19 06:40:33 72° 102° (ESE) 06:44:44 145.980
SPROUT 29 Apr 06:36:29 06:40:47 86° 77° (ENE) 06:45:08 437.525
O/OREOS (USA 219) 29 Apr 06:38:17 06:39:54 12° 52° (NE) 06:41:31 437.305
QB50P1 29 Apr 06:39:49 06:44:06 88° 105° (ESE) 06:48:19 145.935-145.965
AO-85 29 Apr 06:41:42 06:44:03 14° 254° (WSW) 06:46:18 145.980
CUBEBUG 1 29 Apr 06:52:10 06:55:41 24° 265° (W) 06:59:15 437.445
TIGRISAT 29 Apr 06:54:58 06:57:20 14° 296° (WNW) 06:59:39 435.000
PCSat 29 Apr 06:55:27 06:59:08 18° 46° (NE) 07:02:48 145.827
SWISSCUBE 29 Apr 07:00:13 07:01:00 10° 60° (ENE) 07:01:48 437.505
VELOX 1 29 Apr 07:08:11 07:10:55 16° 267° (W) 07:13:40 145.980
AIST 1 29 Apr 07:15:34 07:19:47 63° 94° (E) 07:24:05
NANOSAT C BR1 29 Apr 07:17:35 07:21:28 35° 289° (WNW) 07:25:18 145.865
DX 1 29 Apr 07:22:00 07:23:46 12° 269° (W) 07:25:33 434.975-435.025
TISAT 1 29 Apr 07:27:35 07:31:51 84° 260° (W) 07:36:07 437.305
BEESAT 29 Apr 07:31:01 07:34:27 20° 65° (ENE) 07:37:54 436.000
BUGSAT 1 29 Apr 07:37:38 07:41:41 45° 287° (WNW) 07:45:39 437.445
Cosmos 2499 29 Apr 07:46:27 07:53:19 52° 91° (E) 08:00:06 435.465 / 435.565
JAS-2 29 Apr 07:49:20 07:56:54 55° 99° (E) 08:04:32 435.910
Gurwin Techsat 1B 29 Apr 07:58:09 08:00:30 13° 90° (E) 08:02:51 435.225
CUSAT 1 29 Apr 08:07:01 08:13:03 31° 73° (ENE) 08:19:51 437.405
QB50P2 29 Apr 08:09:17 08:09:36 10° 298° (WNW) 08:09:55 145.880/145.840
DANDE 29 Apr 08:10:07 08:13:39 15° 70° (ENE) 08:17:33 436.750
O/OREOS (USA 219) 29 Apr 08:15:21 08:19:53 76° 250° (WSW) 08:24:21 437.305
ITUPSAT 1 29 Apr 08:21:28 08:26:11 64° 74° (ENE) 08:30:54 437.325
RS-15 29 Apr 08:23:44 08:32:28 23° 340° (NNW) 08:41:31 29.354- 29.394
GONETS M04 29 Apr 08:26:46 08:35:17 50° 284° (WNW) 08:43:51
SWISSCUBE 29 Apr 08:33:19 08:38:04 85° 256° (WSW) 08:42:51 437.505
Oscar 19 29 Apr 08:37:37 08:42:51 81° 105° (ESE) 08:48:03 437.125/150
PCSat 29 Apr 08:37:41 08:43:06 73° 245° (WSW) 08:48:29 145.827
AIST 1 29 Apr 08:57:16 08:57:51 10° 292° (WNW) 08:58:26
BEESAT 29 Apr 09:07:26 09:11:55 41° 261° (W) 09:16:27 436.000
KKS-1 29 Apr 09:10:36 09:14:18 26° 68° (ENE) 09:18:02 437.445
AO-7 29 Apr 09:30:41 09:36:14 19° 92° (E) 09:41:46 29.400- 29.500
BEESAT 3 29 Apr 09:34:33 09:36:14 12° 43° (NE) 09:37:54 437.485
JAS-2 29 Apr 09:34:53 09:41:30 33° 295° (WNW) 09:48:16 435.910
Gurwin Techsat 1B 29 Apr 09:35:39 09:40:58 73° 286° (WNW) 09:46:15 435.225
STARS 29 Apr 09:39:16 09:43:01 27° 69° (ENE) 09:46:47 437.465
Cosmos 2499 29 Apr 09:41:01 09:46:43 25° 289° (WNW) 09:52:26 435.465 / 435.565
ITAMSAT 1 29 Apr 09:46:22 09:51:30 60° 102° (ESE) 09:56:36 435.822/435.867
CUSAT 1 29 Apr 09:48:35 09:55:19 53° 266° (W) 10:02:59 437.405
DANDE 29 Apr 09:50:35 09:56:48 89° 83° (E) 10:04:38 436.750
ITUPSAT 1 29 Apr 10:02:27 10:04:25 12° 269° (W) 10:06:23 437.325
MOZHAYETS 4 29 Apr 10:17:16 10:21:50 82° 76° (ENE) 10:26:26
Oscar 19 29 Apr 10:19:15 10:21:27 13° 300° (WNW) 10:23:38 437.125/150
RS-15 29 Apr 10:42:23 10:51:11 22° 17° (NNE) 11:00:06 29.354- 29.394
KKS-1 29 Apr 10:46:57 10:50:46 28° 264° (W) 10:54:37 437.445
YUBILEINY 29 Apr 11:00:36 11:04:42 14° 60° (ENE) 11:08:49 435.215
BEESAT 2 29 Apr 11:09:16 11:13:14 62° 58° (ENE) 11:17:10 435.950
BEESAT 3 29 Apr 11:10:28 11:14:25 72° 241° (WSW) 11:18:19 437.485
STARS 29 Apr 11:15:36 11:19:18 26° 264° (W) 11:23:01 437.465
AO-7 29 Apr 11:21:29 11:29:50 84° 289° (WNW) 11:38:11 29.400- 29.500
ITAMSAT 1 29 Apr 11:27:14 11:30:28 17° 298° (WNW) 11:33:41 435.822/435.867
DANDE 29 Apr 11:35:44 11:39:16 15° 273° (W) 11:43:09 436.750
NOAA 15 29 Apr 11:43:16 11:44:09 10° 89° (E) 11:45:01 137.62
Cosmos 2491 29 Apr 11:44:53 11:47:42 12° 74° (ENE) 11:50:30 435.465 / 435.565
CUBESAT XI-V 29 Apr 11:50:26 11:55:01 86° 80° (E) 11:59:39 437.345
NOAA 18 29 Apr 12:00:46 12:03:43 15° 91° (E) 12:06:40 137.9125
HORYU 2 29 Apr 12:05:39 12:10:04 71° 285° (WNW) 12:14:27 437.375
AIST 2 29 Apr 12:06:00 12:09:07 20° 47° (NE) 12:12:14 435.215
BRITE-PL 29 Apr 12:14:29 12:18:06 17° 90° (E) 12:21:41 437.365/2234.400
CUTE-I 29 Apr 12:23:51 12:27:29 18° 93° (E) 12:31:06 437.470
LilacSat-2 29 Apr 12:44:54 12:47:58 23° 95° (E) 12:51:00 437.200
BEESAT 2 29 Apr 12:49:59 12:50:32 10° 252° (WSW) 12:51:04 435.950
YUBILEINY 29 Apr 12:54:25 13:03:09 75° 81° (E) 13:11:50 435.215
RS-15 29 Apr 12:55:43 13:07:37 52° 48° (NE) 13:19:31 29.354- 29.394
STRAND 1 29 Apr 13:01:59 13:06:48 44° 71° (ENE) 13:11:38 437.568
Cubesat XI-IV 29 Apr 13:05:43 13:10:50 46° 99° (E) 13:15:56 437.490
AO-7 29 Apr 13:16:06 13:21:24 19° 309° (NW) 13:26:44 29.400- 29.500
NOAA 15 29 Apr 13:19:11 13:24:32 86° 288° (WNW) 13:29:51 137.62
Cosmos 2504 29 Apr 13:19:30 13:25:42 27° 71° (ENE) 13:32:11 435.465 / 435.565
PRISM 29 Apr 13:33:46 13:36:17 16° 66° (ENE) 13:38:49 437.425
Cosmos 2491 29 Apr 13:34:04 13:42:48 72° 93° (E) 13:51:36 435.465 / 435.565
M-CUBED/EXP-1 PRIME 29 Apr 13:37:26 13:40:57 28° 101° (E) 13:44:12 437.505
NOAA 18 29 Apr 13:39:25 13:44:51 67° 287° (WNW) 13:50:14 137.9125
AIST 2 29 Apr 13:43:53 13:47:46 39° 244° (WSW) 13:51:37 435.215
GOMX 1 29 Apr 13:46:55 13:52:23 61° 100° (E) 13:57:37 467.674
BRITE-PL 29 Apr 13:51:18 13:56:57 65° 286° (WNW) 14:02:33 437.365/2234.400
SO-50 29 Apr 13:51:43 13:56:02 32° 113° (ESE) 14:00:24 436.795
AUBIESAT-1 29 Apr 13:59:39 14:03:27 42° 103° (ESE) 14:06:58 437.475
CUTE-I 29 Apr 14:02:39 14:07:49 52° 288° (WNW) 14:12:57 437.470
DOVE 4 29 Apr 14:04:34 14:09:33 44° 97° (E) 14:14:15 437.250
LilacSat-2 29 Apr 14:19:12 14:22:11 22° 290° (WNW) 14:25:09 437.200
HO-68 29 Apr 14:24:12 14:30:13 28° 95° (E) 14:36:12 435.675
SEEDS 29 Apr 14:25:28 14:27:32 13° 92° (E) 14:29:36 437.485
COMPASS 1 29 Apr 14:36:49 14:38:40 13° 91° (E) 14:40:31 437.405
STRAND 1 29 Apr 14:42:24 14:46:09 20° 266° (W) 14:49:54 437.568
Cubesat XI-IV 29 Apr 14:46:34 14:50:35 22° 295° (WNW) 14:54:34 437.490
CANX-2 29 Apr 14:50:59 14:55:00 42° 98° (E) 14:59:01 2200.000
YUBILEINY 29 Apr 14:52:54 14:58:57 22° 280° (W) 15:05:01 435.215
CUBEBUG 2 29 Apr 14:58:55 15:01:13 14° 91° (E) 15:03:29 437.445
NOAA 15 29 Apr 15:01:55 15:03:29 11° 302° (WNW) 15:05:03 137.62
PRISM 29 Apr 15:07:29 15:11:17 38° 261° (W) 15:15:07 437.425
RS-15 29 Apr 15:08:32 15:20:11 52° 250° (WSW) 15:31:46 29.354- 29.394
AAUSAT CUBESAT 2 29 Apr 15:10:28 15:13:55 25° 96° (E) 15:17:21 437.432
ISS 29 Apr 15:11:25 15:14:40 84° 142° (SE) 15:17:57 145.825
Cosmos 2504 29 Apr 15:12:04 15:19:22 56° 268° (W) 15:27:10 435.465 / 435.565
M-CUBED/EXP-1 PRIME 29 Apr 15:12:15 15:15:19 21° 299° (WNW) 15:18:12 437.505
CINEMA 3 29 Apr 15:18:41 15:23:25 81° 99° (E) 15:27:55 145.822/145.860
CUTE 1.7 + AOD 2 29 Apr 15:24:28 15:28:41 87° 283° (WNW) 15:32:54 437.475
GOMX 1 29 Apr 15:26:15 15:29:52 18° 297° (WNW) 15:33:25 467.674
SO-50 29 Apr 15:32:05 15:36:29 32° 310° (NW) 15:40:56 436.795
Cosmos 2491 29 Apr 15:33:40 15:40:26 24° 293° (WNW) 15:47:17 435.465 / 435.565
AUBIESAT-1 29 Apr 15:35:20 15:37:31 14° 301° (WNW) 15:39:37 437.475
ZACube-1 29 Apr 15:39:54 15:42:53 18° 93° (E) 15:45:47 437.345
DOVE 4 29 Apr 15:42:57 15:46:51 22° 295° (WNW) 15:50:38 437.250
UNISAT 6 29 Apr 15:55:30 15:59:26 27° 69° (ENE) 16:03:19 437.425
SEEDS 29 Apr 15:59:28 16:03:29 46° 287° (WNW) 16:07:29 437.485
COMPASS 1 29 Apr 16:10:29 16:14:29 48° 286° (WNW) 16:18:29 437.405
HO-68 29 Apr 16:11:17 16:18:10 52° 292° (WNW) 16:25:02 435.675
TIGRISAT 29 Apr 16:14:00 16:18:21 40° 72° (ENE) 16:22:40 435.000
CANX-2 29 Apr 16:28:00 16:30:31 16° 294° (WNW) 16:33:00 2200.000
Oscar 11 29 Apr 16:29:20 16:33:39 84° 105° (ESE) 16:37:57 145.826/435.025
CUBEBUG 2 29 Apr 16:33:57 16:38:08 45° 287° (WNW) 16:42:11 437.445
FUNcube-1 29 Apr 16:35:04 16:39:18 79° 102° (ESE) 16:43:27 145.935
UWE-3 29 Apr 16:35:05 16:39:20 64° 285° (WNW) 16:43:29 435.000/436.395/437.385
NANOSAT C BR1 29 Apr 16:35:05 16:36:58 13° 64° (ENE) 16:38:51 145.865
ANTELSAT 29 Apr 16:37:00 16:41:41 75° 76° (ENE) 16:46:18 437.575/2403.000
GONETS M04 29 Apr 16:43:45 16:48:26 15° 61° (ENE) 16:53:05
AAUSAT CUBESAT 2 29 Apr 16:45:58 16:49:18 24° 291° (WNW) 16:52:38 437.432
ISS 29 Apr 16:49:13 16:51:30 17° 339° (NNW) 16:53:47 145.825
DELFI C3 29 Apr 16:57:14 17:01:13 87° 97° (E) 17:05:13 145.870
CINEMA 3 29 Apr 16:58:53 16:59:46 10° 300° (WNW) 17:00:39 145.822/145.860
ZACube-1 29 Apr 17:15:27 17:19:15 33° 289° (WNW) 17:23:00 437.345
HUMSAT D 29 Apr 17:17:57 17:22:01 62° 101° (E) 17:26:02 437.325/437.525
QB50P2 29 Apr 17:21:30 17:25:35 45° 73° (ENE) 17:29:42 145.880/145.840
POLYITAN 1 29 Apr 17:23:34 17:27:41 46° 73° (ENE) 17:31:49 437.675
AIST 1 29 Apr 17:24:55 17:27:25 15° 71° (ENE) 17:29:56
PHONESAT 2.4 29 Apr 17:26:00 17:28:25 20° 150° (SSE) 17:30:51 2401.200-2431.200
DUCHIFAT 1 29 Apr 17:26:56 17:30:59 44° 73° (ENE) 17:35:03 145.980
POPSAT HIP 1 29 Apr 17:27:17 17:31:25 49° 73° (ENE) 17:35:34 437.405
QB50P1 29 Apr 17:30:52 17:35:02 55° 74° (ENE) 17:39:15 145.935-145.965
UNISAT 6 29 Apr 17:32:00 17:36:02 29° 264° (W) 17:40:04 437.425
DX 1 29 Apr 17:35:33 17:35:54 10° 90° (E) 17:36:15 434.975-435.025
Cosmos 2499 29 Apr 17:38:45 17:43:26 17° 66° (ENE) 17:48:16 435.465 / 435.565
50 SAT 29 Apr 17:43:56 17:46:07 15° 94° (E) 17:48:20 437.505
UKube-1 29 Apr 17:48:22 17:50:00 12° 91° (E) 17:51:37 .
TIGRISAT 29 Apr 17:51:47 17:55:09 19° 266° (W) 17:58:30 435.000
AISAT 29 Apr 17:53:14 17:56:38 21° 94° (E) 18:00:00 437.250
ESTCUBE 1 29 Apr 17:54:51 17:58:48 29° 96° (E) 18:02:45 437.505/2401.250
JAS-2 29 Apr 18:02:45 18:06:45 19° 58° (ENE) 18:11:02 435.910
NANOSAT C BR1 29 Apr 18:08:01 18:12:12 56° 260° (W) 18:16:26 145.865
Oscar 19 29 Apr 18:17:32 18:19:51 13° 60° (ENE) 18:22:11 437.125/150
ANTELSAT 29 Apr 18:18:38 18:18:51 10° 271° (W) 18:19:02 437.575/2403.000
SPROUT 29 Apr 18:24:52 18:27:31 16° 92° (E) 18:30:09 437.525
BUGSAT 1 29 Apr 18:25:37 18:29:50 79° 259° (WSW) 18:34:06 437.445
GONETS M04 29 Apr 18:38:00 18:46:48 79° 82° (E) 18:55:30
CUBEBUG 1 29 Apr 18:40:41 18:45:07 67° 102° (ESE) 18:49:31 437.445
HUMSAT D 29 Apr 18:56:16 18:57:05 11° 297° (WNW) 18:57:56 437.325/437.525
VELOX 1 29 Apr 18:57:14 19:01:43 79° 284° (WNW) 19:06:11 145.980
QB50P2 29 Apr 18:59:15 19:01:37 14° 268° (W) 19:03:59 145.880/145.840
AIST 1 29 Apr 19:01:04 19:05:16 45° 268° (W) 19:09:27
POLYITAN 1 29 Apr 19:01:24 19:03:42 14° 268° (W) 19:06:03 437.675
PHONESAT 2.4 29 Apr 19:01:52 19:05:01 80° 166° (SSE) 19:08:11 2401.200-2431.200
DUCHIFAT 1 29 Apr 19:04:32 19:06:53 14° 268° (W) 19:09:16 145.980
POPSAT HIP 1 29 Apr 19:05:24 19:07:27 13° 268° (W) 19:09:33 437.405
DX 1 29 Apr 19:08:08 19:12:31 67° 285° (WNW) 19:16:51 434.975-435.025
QB50P1 29 Apr 19:09:34 19:11:08 12° 269° (W) 19:12:43 145.935-145.965
AO-85 29 Apr 19:12:08 19:16:45 29° 111° (ESE) 19:21:22 145.980
TISAT 1 29 Apr 19:13:53 19:16:31 16° 93° (E) 19:19:07 437.305
50 SAT 29 Apr 19:16:46 19:19:59 30° 288° (WNW) 19:23:12 437.505
Gurwin Techsat 1B 29 Apr 19:17:40 19:21:28 20° 64° (ENE) 19:25:16 435.225
UKube-1 29 Apr 19:22:07 19:26:22 56° 287° (WNW) 19:30:36 .
AISAT 29 Apr 19:29:07 19:33:10 34° 290° (WNW) 19:37:11 437.250
ITAMSAT 1 29 Apr 19:29:16 19:29:48 10° 58° (ENE) 19:30:19 435.822/435.867
Cosmos 2499 29 Apr 19:29:44 19:37:24 88° 264° (W) 19:45:41 435.465 / 435.565
ESTCUBE 1 29 Apr 19:31:47 19:35:29 25° 292° (WNW) 19:39:10 437.505/2401.250
JAS-2 29 Apr 19:45:18 19:50:58 68° 259° (W) 19:57:26 435.910
Oscar 19 29 Apr 19:53:19 19:58:28 79° 257° (WSW) 20:03:41 437.125/150
SPROUT 29 Apr 19:59:36 20:03:39 41° 288° (WNW) 20:07:40 437.525
ISS 29 Apr 20:04:34 20:06:37 15° 19° (NNE) 20:08:41 145.825
CUBEBUG 1 29 Apr 20:19:15 20:20:49 12° 297° (WNW) 20:22:22 437.445
ITUPSAT 1 29 Apr 20:24:05 20:27:17 18° 93° (E) 20:30:27 437.325
AO-7 29 Apr 20:28:42 20:35:15 27° 56° (ENE) 20:41:49 29.400- 29.500
SWISSCUBE 29 Apr 20:35:02 20:39:00 26° 96° (E) 20:42:59 437.505
GONETS M04 29 Apr 20:36:43 20:42:31 20° 281° (W) 20:48:18
PHONESAT 2.4 29 Apr 20:38:49 20:41:59 68° 3° (N) 20:45:09 2401.200-2431.200
TISAT 1 29 Apr 20:48:22 20:52:19 39° 288° (WNW) 20:56:15 437.305
O/OREOS (USA 219) 29 Apr 20:49:29 20:51:54 14° 99° (E) 20:54:21 437.305
AO-85 29 Apr 20:51:56 20:57:06 42° 308° (NW) 21:02:15 145.980
Gurwin Techsat 1B 29 Apr 20:55:51 21:01:01 51° 260° (W) 21:06:11 435.225
ITAMSAT 1 29 Apr 21:03:14 21:08:25 82° 75° (ENE) 21:13:37 435.822/435.867
BEESAT 29 Apr 21:08:14 21:12:53 52° 100° (E) 21:17:31 436.000
CUSAT 1 29 Apr 21:13:29 21:14:58 13° 83° (E) 21:16:35 437.405
Cosmos 2499 29 Apr 21:25:36 21:29:29 15° 280° (W) 21:33:29 435.465 / 435.565
PCSat 29 Apr 21:37:15 21:40:33 17° 104° (ESE) 21:43:51 145.827
ISS 29 Apr 21:40:16 21:43:33 76° 40° (NE) 21:46:47 145.825
ITUPSAT 1 29 Apr 22:00:46 22:05:19 45° 289° (WNW) 22:09:51 437.325
SWISSCUBE 29 Apr 22:12:37 22:16:47 31° 291° (WNW) 22:20:56 437.505
MOZHAYETS 4 29 Apr 22:14:06 22:17:31 20° 94° (E) 22:20:55
PHONESAT 2.4 29 Apr 22:15:45 22:18:53 59° 198° (SSW) 22:22:00 2401.200-2431.200
AO-7 29 Apr 22:19:06 22:27:20 70° 255° (WSW) 22:35:37 29.400- 29.500
SO-50 29 Apr 22:24:16 22:28:05 23° 46° (NE) 22:31:48 436.795
O/OREOS (USA 219) 29 Apr 22:26:20 22:30:49 52° 294° (WNW) 22:35:19 437.305
KKS-1 29 Apr 22:38:06 22:42:33 59° 101° (ESE) 22:46:56 437.445
BEESAT 29 Apr 22:47:17 22:50:14 17° 296° (WNW) 22:53:10 436.000
ITAMSAT 1 29 Apr 22:47:23 22:48:28 11° 271° (W) 22:49:32 435.822/435.867
CUSAT 1 29 Apr 22:53:56 22:56:36 24° 290° (WNW) 22:59:52 437.405
NOAA 15 29 Apr 23:00:56 23:04:15 17° 62° (ENE) 23:07:36 137.62
DANDE 29 Apr 23:02:12 23:04:49 52° 282° (WNW) 23:07:53 436.750
HORYU 2 29 Apr 23:02:12 23:06:41 89° 252° (WSW) 23:11:12 437.375
STARS 29 Apr 23:05:09 23:09:32 60° 101° (ESE) 23:13:52 437.465
PCSat 29 Apr 23:18:00 23:23:22 64° 301° (WNW) 23:28:46 145.827
ISS 29 Apr 23:19:02 23:19:33 10° 233° (SW) 23:20:05 145.825
BRITE-PL 29 Apr 23:25:12 23:27:50 15° 61° (ENE) 23:30:32 437.365/2234.400
NOAA 18 29 Apr 23:25:17 23:29:52 27° 65° (ENE) 23:34:27 137.9125
LilacSat-2 29 Apr 23:27:53 23:29:04 11° 65° (ENE) 23:30:14 437.200
CUTE-I 29 Apr 23:44:25 23:48:54 28° 67° (ENE) 23:53:23 437.470
Cosmos 2491 29 Apr 23:46:17 23:54:06 34° 71° (ENE) 00:01:48 435.465 / 435.565
CUBESAT XI-V 29 Apr 23:48:35 23:52:19 23° 94° (E) 23:56:03 437.345
MOZHAYETS 4 29 Apr 23:50:36 23:54:45 36° 289° (WNW) 23:58:55
PHONESAT 2.4 29 Apr 23:53:40 23:55:21 14° 213° (SSW) 23:57:02 2401.200-2431.200
YUBILEINY 30 Apr 00:02:00 00:06:45 16° 77° (ENE) 00:11:28 435.215
SO-50 30 Apr 00:04:19 00:08:45 43° 245° (WSW) 00:13:03 436.795
KKS-1 30 Apr 00:16:29 00:18:35 13° 297° (WNW) 00:20:41 437.445
AO-7 30 Apr 00:19:29 00:21:26 11° 272° (W) 00:23:24 29.400- 29.500
M-CUBED/EXP-1 PRIME 30 Apr 00:21:45 00:26:05 37° 66° (ENE) 00:30:24 437.505
Cubesat XI-IV 30 Apr 00:26:36 00:31:54 69° 74° (ENE) 00:37:12 437.490
NOAA 15 30 Apr 00:38:20 00:43:30 60° 259° (WSW) 00:48:45 137.62
STARS 30 Apr 00:43:25 00:45:21 13° 297° (WNW) 00:47:18 437.465
AUBIESAT-1 30 Apr 00:43:33 00:48:03 51° 68° (ENE) 00:52:33 437.475
HO-68 30 Apr 00:53:08 00:58:03 20° 57° (ENE) 01:03:00 435.675
GOMX 1 30 Apr 00:53:30 00:58:15 55° 73° (ENE) 01:03:21 467.674
LilacSat-2 30 Apr 00:59:06 01:02:53 52° 260° (W) 01:06:43 437.200
BEESAT 3 30 Apr 01:00:49 01:03:58 23° 112° (ESE) 01:07:08 437.485
BRITE-PL 30 Apr 01:01:03 01:05:38 62° 260° (W) 01:10:38 437.365/2234.400
BEESAT 2 30 Apr 01:02:12 01:04:15 14° 109° (ESE) 01:06:18 435.950
NOAA 18 30 Apr 01:05:11 01:10:19 39° 261° (W) 01:15:29 137.9125
PCSat 30 Apr 01:06:11 01:07:51 11° 321° (NW) 01:09:33 145.827
DOVE 4 30 Apr 01:08:20 01:12:57 39° 70° (ENE) 01:17:48 437.250
STRAND 1 30 Apr 01:14:41 01:17:47 16° 92° (E) 01:20:52 437.568
